FW4445 Weather Reports


time (UTC)temp
F
wind
direction
speed
knots
gust
knots
rain 1hr
in
rain 24hr
in
rain mn
in
humidity
%
barometer
mb
20260906080024 81 77 7.0 13.9 0.00 0.00 0.00 49 1023.2
20260906075523 81 66 6.1 13.9 0.00 0.00 0.00 50 1023.2
20260906075023 81 75 6.1 16.5 0.00 0.00 0.00 50 1023.2
20260906074524 80 81 7.0 16.5 0.00 0.00 0.00 50 1022.9
20260906074025 80 67 6.1 16.5 0.00 0.00 0.00 51 1022.9
20260906073523 80 61 6.1 14.8 0.00 0.00 0.00 50 1023.0
20260906073024 80 70 7.8 16.5 0.00 0.00 0.00 51 1023.2
20260906072523 80 75 7.8 16.5 0.00 0.00 0.00 51 1023.1
20260906072024 80 65 6.1 16.5 0.00 0.00 0.00 51 1023.0
20260906071523 80 61 7.0 16.5 0.00 0.00 0.00 52 1023.1
20260906070523 79 68 6.1 13.9 0.00 0.00 0.00 52 1022.8
20260906070023 79 74 5.2 13.9 0.00 0.00 0.00 52 1022.9
20260906065524 79 74 4.3 11.3 0.00 0.00 0.00 53 1022.8
20260906065023 79 68 4.3 13.9 0.00 0.00 0.00 54 1022.8
20260906064523 78 64 4.3 13.9 0.00 0.00 0.00 55 1022.7
20260906063523 78 75 3.5 11.3 0.00 0.00 0.00 56 1023.0
20260906063024 77 73 2.6 8.7 0.00 0.00 0.00 56 1022.8
20260906062523 77 70 4.3 11.3 0.00 0.00 0.00 57 1022.6
20260906061525 77 73 3.5 11.3 0.00 0.00 0.00 57 1022.6
20260906061025 76 71 3.5 7.8 0.00 0.00 0.00 59 1022.5
20260906060523 76 63 3.5 8.7 0.00 0.00 0.00 60 1022.6
20260906060024 76 62 2.6 8.7 0.00 0.00 0.00 60 1022.2
20260906055024 75 70 3.5 7.8 0.00 0.00 0.00 62 1022.4
20260906054523 75 65 2.6 7.8 0.00 0.00 0.00 63 1022.3
20260906054023 74 54 2.6 7.0 0.00 0.00 0.00 64 1022.1
20260906053523 74 55 2.6 7.0 0.00 0.00 0.00 64 1022.3
20260906053023 74 61 2.6 7.0 0.00 0.00 0.00 64 1022.2
20260906052027 73 63 2.6 7.0 0.00 0.00 0.00 65 1022.4
20260906051525 73 67 1.7 7.0 0.00 0.00 0.00 65 1022.2
20260906051024 73 61 1.7 8.7 0.00 0.00 0.00 65 1022.0
20260906050522 73 54 2.6 8.7 0.00 0.00 0.00 66 1021.9
20260906045523 73 50 2.6 7.0 0.00 0.00 0.00 66 1021.9
20260906045026 73 48 2.6 7.0 0.00 0.00 0.00 67 1021.7
20260906044523 73 62 1.7 7.0 0.00 0.00 0.00 67 1021.5
20260906044024 73 68 1.7 5.2 0.00 0.00 0.00 66 1021.7
20260906043523 73 68 1.7 5.2 0.00 0.00 0.00 66 1021.8
20260906043024 73 65 1.7 5.2 0.00 0.00 0.00 66 1021.6
20260906042023 73 62 1.7 5.2 0.00 0.00 0.00 66 1021.7
20260906041524 73 63 1.7 5.2 0.00 0.00 0.00 66 1021.4
20260906041024 73 61 0.9 4.3 0.00 0.00 0.00 66 1021.5
20260906040524 73 64 0.9 5.2 0.00 0.00 0.00 67 1021.5
20260906040024 73 66 0.9 5.2 0.00 0.00 0.00 68 1021.6
20260906035523 72 65 0.9 2.6 0.00 0.00 0.00 69 1021.5
20260906035023 73 50 0.9 4.3 0.00 0.00 0.00 69 1021.3
20260906034523 73 53 1.7 4.3 0.00 0.00 0.00 69 1021.4
20260906033523 73 67 1.7 4.3 0.00 0.00 0.00 69 1021.4
20260906033023 73 65 1.7 4.3 0.00 0.00 0.00 69 1021.4
20260906032523 73 60 1.7 4.3 0.00 0.00 0.00 69 1021.3
20260906032023 73 62 0.9 4.3 0.00 0.00 0.00 68 1021.2
20260906031524 73 68 1.7 5.2 0.00 0.00 0.00 68 1021.1
20260906031024 73 66 1.7 5.2 0.00 0.00 0.00 68 1021.1
20260906030523 73 62 1.7 4.3 0.00 0.00 0.00 68 1021.1
20260906025523 73 70 0.9 4.3 0.00 0.00 0.00 69 1021.1
20260906025023 73 64 0.9 4.3 0.00 0.00 0.00 69 1020.9
20260906024024 74 60 0.9 4.3 0.00 0.00 0.00 69 1020.8
20260906023523 74 61 1.7 5.2 0.00 0.00 0.00 69 1020.8
20260906022522 74 56 1.7 5.2 0.00 0.00 0.00 69 1020.8
20260906022024 74 56 1.7 5.2 0.00 0.00 0.00 68 1020.8
20260906021523 74 56 1.7 5.2 0.00 0.00 0.00 68 1021.1
20260906021024 74 57 0.9 5.2 0.00 0.00 0.00 69 1020.8
20260906020523 74 62 1.7 5.2 0.00 0.00 0.00 69 1021.0
20260906020023 74 66 1.7 5.2 0.00 0.00 0.00 69 1020.7
20260906015524 74 63 1.7 5.2 0.00 0.00 0.00 69 1020.8
20260906015023 74 60 1.7 5.2 0.00 0.00 0.00 68 1020.6
20260906014523 74 60 1.7 5.2 0.00 0.00 0.00 69 1020.7
20260906013523 74 55 1.7 5.2 0.00 0.00 0.00 68 1020.7
20260906013024 74 61 1.7 4.3 0.00 0.00 0.00 69 1020.8
20260906012024 74 58 1.7 5.2 0.00 0.00 0.00 69 1020.6
20260906011524 74 57 1.7 5.2 0.00 0.00 0.00 69 1020.6
20260906011024 74 64 1.7 5.2 0.00 0.00 0.00 70 1020.5
20260906010522 74 69 1.7 5.2 0.00 0.00 0.00 71 1020.5
20260906010025 73 69 1.7 4.3 0.00 0.00 0.00 71 1020.6
20260906005024 72 63 0.9 2.6 0.00 0.00 0.00 73 1020.5
20260906004524 72 60 0.9 2.6 0.00 0.00 0.00 74 1020.5
20260906003523 72 58 0.0 2.6 0.00 0.00 0.00 75 1020.6
20260906003023 72 62 0.0 2.6 0.00 0.00 0.00 75 1020.7
20260906002523 72 72 0.0 2.6 0.00 0.00 0.00 75 1020.6
20260906002023 72 63 0.9 2.6 0.00 0.00 0.00 75 1020.4
20260906001523 72 48 0.9 2.6 0.00 0.00 0.00 75 1020.6
20260906001024 73 47 0.9 2.6 0.00 0.00 0.00 75 1020.6
20260906000523 73 43 0.9 4.3 0.00 0.00 0.00 75 1020.6
20260906000028 73 34 0.9 4.3 0.00 0.00 0.00 75 1020.6
20260905235524 73 54 0.9 5.2 0.00 0.00 0.00 74 1020.5
20260905235027 73 71 1.7 5.2 0.00 0.00 0.00 74 1020.5
20260905234522 73 67 1.7 4.3 0.00 0.00 0.00 73 1020.3
20260905234023 73 64 0.9 4.3 0.00 0.00 0.00 73 1020.2
20260905233522 73 62 0.9 4.3 0.00 0.00 0.00 72 1020.2
20260905233024 73 54 0.9 2.6 0.00 0.00 0.00 72 1020.3
20260905232522 73 48 0.0 2.6 0.00 0.00 0.00 70 1020.4
20260905232023 73 65 0.9 2.6 0.00 0.00 0.00 69 1020.5
20260905231524 73 47 0.9 2.6 0.00 0.00 0.00 68 1020.3
20260905231023 73 17 0.9 4.3 0.00 0.00 0.00 68 1020.4
20260905230522 73 18 0.0 4.3 0.00 0.00 0.00 69 1020.2
20260905230024 73 44 0.0 4.3 0.00 0.00 0.00 69 1020.3
20260905225522 73 61 0.9 2.6 0.00 0.00 0.00 69 1020.4
20260905225023 74 59 0.9 2.6 0.00 0.00 0.00 68 1020.3
20260905224522 74 53 0.9 5.2 0.00 0.00 0.00 67 1020.1
20260905223523 74 72 1.7 4.3 0.00 0.00 0.00 65 1019.9
20260905221525 75 60 0.9 2.6 0.00 0.00 0.00 64 1019.7
20260905221024 75 53 0.9 4.3 0.00 0.00 0.00 63 1019.6
20260905220524 76 65 0.9 4.3 0.00 0.00 0.00 62 1019.9
20260905220045 76 63 0.9 4.3 0.00 0.00 0.00 61 1019.8
20260905215523 76 69 0.9 4.3 0.00 0.00 0.00 61 1019.7
20260905215023 76 73 0.9 4.3 0.00 0.00 0.00 61 1019.9
20260905214522 76 66 0.9 2.6 0.00 0.00 0.00 62 1019.6
20260905214023 76 71 0.9 4.3 0.00 0.00 0.00 62 1019.6
20260905213523 76 72 0.9 4.3 0.00 0.00 0.00 62 1019.6
20260905213023 76 68 0.9 4.3 0.00 0.00 0.00 62 1019.6
20260905212523 76 70 0.9 4.3 0.00 0.00 0.00 62 1019.6
20260905212023 77 73 0.9 4.3 0.00 0.00 0.00 62 1019.7
20260905211523 77 67 1.7 4.3 0.00 0.00 0.00 62 1019.7
20260905211027 77 64 1.7 4.3 0.00 0.00 0.00 62 1019.6
20260905210024 77 75 1.7 7.0 0.00 0.00 0.00 62 1019.5
20260905205022 77 56 1.7 5.2 0.00 0.00 0.00 63 1019.6
20260905204024 78 67 1.7 5.2 0.00 0.00 0.00 63 1019.7
20260905203522 78 69 1.7 4.3 0.00 0.00 0.00 64 1019.8
20260905203023 78 61 1.7 7.0 0.00 0.00 0.00 65 1019.6
20260905202522 78 60 1.7 7.0 0.00 0.00 0.00 67 1019.4
20260905201522 78 67 2.6 7.0 0.00 0.00 0.00 68 1019.3
20260905201025 77 67 1.7 7.0 0.00 0.00 0.00 69 1019.3
20260905200522 77 68 0.9 5.2 0.00 0.00 0.00 77 1019.2
20260905200024 77 68 0.9 2.6 0.00 0.00 0.00 80 1019.2
20260905195523 77 61 0.0 1.7 0.00 0.00 0.00 81 1019.3
20260905195024 77 59 0.0 2.6 0.00 0.00 0.00 81 1019.1
20260905194524 77 69 0.0 2.6 0.00 0.00 0.00 81 1018.9
20260905194024 77 76 0.9 2.6 0.00 0.00 0.00 81 1019.0
20260905193522 77 73 0.0 2.6 0.00 0.00 0.00 81 1019.0
20260905193024 77 68 0.0 1.7 0.00 0.00 0.00 81 1019.0
20260905192522 77 0 0.0 0.0 0.00 0.00 0.00 82 1018.8
20260905192023 77 86 0.0 1.7 0.00 0.00 0.00 81 1018.6
20260905191524 77 73 0.0 1.7 0.00 0.00 0.00 81 1018.6
20260905191025 78 76 0.9 4.3 0.00 0.00 0.00 81 1018.4
20260905190523 78 74 0.9 4.3 0.00 0.00 0.00 81 1018.7
20260905190023 78 68 0.9 4.3 0.00 0.00 0.00 80 1018.5
20260905185523 78 65 0.9 2.6 0.00 0.00 0.00 80 1018.5
20260905185023 78 72 0.0 1.7 0.00 0.00 0.00 80 1018.5
20260905184523 78 72 0.9 2.6 0.00 0.00 0.00 79 1018.4
20260905183522 79 68 0.9 2.6 0.00 0.00 0.00 79 1018.3
20260905183026 79 68 0.9 2.6 0.00 0.00 0.00 78 1018.2
20260905182023 79 72 0.0 2.6 0.00 0.00 0.00 77 1017.7
20260905181523 79 72 0.0 2.6 0.00 0.00 0.00 76 1017.8
20260905181023 79 214 0.0 1.7 0.00 0.00 0.00 76 1017.8
20260905180523 80 226 0.0 2.6 0.00 0.00 0.00 75 1017.7
20260905180023 80 233 0.0 2.6 0.00 0.00 0.00 74 1017.7
20260905175522 81 0 0.0 0.0 0.00 0.00 0.00 73 1017.6
20260905175023 81 54 0.0 1.7 0.00 0.00 0.00 72 1017.5
20260905174522 82 55 0.0 2.6 0.00 0.00 0.00 71 1017.3
20260905173523 83 55 0.0 2.6 0.00 0.00 0.00 68 1017.3
20260905173022 83 50 0.0 1.7 0.00 0.00 0.00 66 1017.0
20260905172523 83 0 0.0 0.0 0.00 0.00 0.00 60 1017.1
20260905172022 84 0 0.0 0.0 0.00 0.00 0.00 59 1017.0
20260905171522 85 0 0.0 0.0 0.00 0.00 0.00 58 1016.9
20260905171023 85 0 0.0 0.0 0.00 0.00 0.00 58 1016.7
20260905170530 85 0 0.0 0.0 0.00 0.00 0.00 57 1016.8
20260905170024 85 0 0.0 0.0 0.00 0.00 0.00 56 1016.7
20260905165522 86 235 0.0 1.7 0.00 0.00 0.00 57 1016.7
20260905165022 86 237 0.0 1.7 0.00 0.00 0.00 56 1016.5
20260905164522 86 233 0.0 1.7 0.00 0.00 0.00 56 1016.7
20260905164022 86 239 0.0 1.7 0.00 0.00 0.00 55 1016.6
20260905163023 86 230 0.0 1.7 0.00 0.00 0.00 55 1016.4
20260905162523 87 233 0.0 2.6 0.00 0.00 0.00 54 1016.5
20260905162023 87 240 0.9 2.6 0.00 0.00 0.00 55 1016.4
20260905161523 87 251 0.9 2.6 0.00 0.00 0.00 55 1016.6
20260905160523 89 228 0.0 2.6 0.00 0.00 0.00 52 1016.4
20260905160023 89 91 0.0 2.6 0.00 0.00 0.00 51 1016.5
20260905155522 89 86 0.9 4.3 0.00 0.00 0.00 52 1016.5
20260905154522 90 106 0.0 4.3 0.00 0.00 0.00 49 1016.3
20260905154023 90 238 0.9 4.3 0.00 0.00 0.00 50 1016.4
20260905153523 90 51 0.9 2.6 0.00 0.00 0.00 50 1016.3
20260905153024 90 76 0.0 2.6 0.00 0.00 0.00 50 1016.0
20260905152025 90 49 0.0 2.6 0.00 0.00 0.00 51 1016.2
20260905151522 90 95 0.9 2.6 0.00 0.00 0.00 50 1016.2
20260905150522 90 191 0.9 4.3 0.00 0.00 0.00 49 1016.3
20260905150024 90 232 0.9 4.3 0.00 0.00 0.00 48 1016.4
20260905145024 90 260 0.9 4.3 0.00 0.00 0.00 47 1016.1
20260905144522 89 66 0.9 4.3 0.00 0.00 0.00 49 1016.1
20260905144024 89 58 1.7 7.0 0.00 0.00 0.00 49 1016.2
20260905143522 89 61 1.7 7.0 0.00 0.00 0.00 49 1016.2
20260905143023 90 92 0.9 4.3 0.00 0.00 0.00 47 1016.2
20260905142522 89 78 1.7 4.3 0.00 0.00 0.00 49 1015.9
20260905141521 90 94 0.9 2.6 0.00 0.00 0.00 49 1016.3
20260905141024 90 76 0.9 4.3 0.00 0.00 0.00 47 1016.2
20260905140523 90 58 0.9 4.3 0.00 0.00 0.00 47 1016.4
20260905140024 90 45 0.9 4.3 0.00 0.00 0.00 48 1016.4
20260905135022 90 66 0.9 4.3 0.00 0.00 0.00 49 1016.4
20260905134522 89 67 0.9 2.6 0.00 0.00 0.00 51 1016.7
20260905134022 90 48 0.9 4.3 0.00 0.00 0.00 48 1016.3
20260905133023 90 133 0.9 4.3 0.00 0.00 0.00 50 1016.4
20260905132522 89 79 1.7 7.8 0.00 0.00 0.00 52 1016.5
20260905132023 88 73 1.7 7.8 0.00 0.00 0.00 54 1016.7
20260905131026 90 338 0.9 2.6 0.00 0.00 0.00 48 1016.7
20260905130522 90 266 0.9 2.6 0.00 0.00 0.00 49 1016.7
20260905130027 89 335 0.9 5.2 0.00 0.00 0.00 48 1016.6
20260905125523 89 79 1.7 5.2 0.00 0.00 0.00 50 1016.8
20260905125022 89 221 0.9 4.3 0.00 0.00 0.00 48 1016.6
20260905124521 90 171 0.9 2.6 0.00 0.00 0.00 48 1016.9
20260905124023 89 103 1.7 4.3 0.00 0.00 0.00 48 1016.9
20260905123522 90 248 0.9 4.3 0.00 0.00 0.00 46 1016.9
20260905123022 90 267 0.9 5.2 0.00 0.00 0.00 46 1016.8
20260905122022 89 192 0.9 4.3 0.00 0.00 0.00 46 1016.9
20260905121022 88 83 1.7 5.2 0.00 0.00 0.00 46 1017.0
20260905120521 88 76 1.7 5.2 0.00 0.00 0.00 47 1017.0
20260905115022 88 80 1.7 5.2 0.00 0.00 0.00 46 1017.1
20260905114523 89 105 0.9 4.3 0.00 0.00 0.00 46 1017.1
20260905114023 89 227 0.9 4.3 0.00 0.00 0.00 46 1017.3
20260905113521 89 227 0.9 4.3 0.00 0.00 0.00 46 1017.1
20260905113024 89 86 0.9 4.3 0.00 0.00 0.00 44 1017.2
20260905112523 88 226 0.9 4.3 0.00 0.00 0.00 45 1017.2
20260905112022 88 72 1.7 5.2 0.00 0.00 0.00 45 1017.3
20260905111523 87 58 1.7 5.2 0.00 0.00 0.00 45 1017.3
20260905111023 87 72 0.9 4.3 0.00 0.00 0.00 46 1017.4
20260905110522 87 80 1.7 5.2 0.00 0.00 0.00 48 1017.4
20260905105523 87 56 1.7 5.2 0.00 0.00 0.00 48 1017.2
20260905105022 87 59 0.9 5.2 0.00 0.00 0.00 49 1017.4
20260905104522 87 77 0.9 4.3 0.00 0.00 0.00 48 1017.3
20260905104022 87 257 0.9 4.3 0.00 0.00 0.00 48 1017.4
20260905103022 85 14 1.7 4.3 0.00 0.00 0.00 46 1017.4
20260905102521 85 64 1.7 5.2 0.00 0.00 0.00 47 1017.3
20260905102023 85 67 1.7 5.2 0.00 0.00 0.00 53 1017.4
20260905101523 84 61 1.7 5.2 0.00 0.00 0.00 54 1017.5
20260905101021 84 55 0.9 4.3 0.00 0.00 0.00 54 1017.5
20260905100522 83 79 0.9 4.3 0.00 0.00 0.00 54 1017.5
20260905095521 83 65 0.9 2.6 0.00 0.00 0.00 55 1017.4
20260905095023 83 52 0.9 2.6 0.00 0.00 0.00 55 1017.5
20260905094522 83 63 0.9 4.3 0.00 0.00 0.00 56 1017.4
20260905094022 83 74 0.9 4.3 0.00 0.00 0.00 54 1017.3
20260905093523 83 73 0.0 2.6 0.00 0.00 0.00 53 1017.6
20260905093022 84 82 0.0 2.6 0.00 0.00 0.00 55 1017.5
20260905092521 83 91 0.9 2.6 0.00 0.00 0.00 55 1017.6
20260905091521 83 90 0.9 2.6 0.00 0.00 0.00 55 1017.7
20260905091023 82 82 0.9 4.3 0.00 0.00 0.00 57 1017.4
20260905090522 82 71 0.9 4.3 0.00 0.00 0.00 60 1017.5
20260905090023 82 76 1.7 4.3 0.00 0.00 0.00 58 1017.4
20260905085526 82 76 1.7 4.3 0.00 0.00 0.00 59 1017.2
20260905084521 82 70 0.9 2.6 0.00 0.00 0.00 59 1017.3
20260905083521 81 71 1.7 4.3 0.00 0.00 0.00 60 1017.1
20260905083022 81 75 1.7 4.3 0.00 0.00 0.00 60 1017.0
20260905082521 82 72 0.9 4.3 0.00 0.00 0.00 59 1017.1
20260905082022 82 64 0.9 4.3 0.00 0.00 0.00 58 1017.1
20260905081521 82 73 0.9 4.3 0.00 0.00 0.00 59 1017.0
20260905081022 82 83 0.9 4.3 0.00 0.00 0.00 59 1017.2